When you browse on this site, cookies collect data to enhance your experience and personalize the content and advertising you see.
Visit our Privacy Policy to learn more. By continuing to use the site, you agree to this use of cookies and data.
  • In Czech Republic
  • List of Countries
  • For 7 days
  • Water Temperature
  • Satellite Maps
  • Weather Map
  • Weather Widgets
  • user-avatar
    Login

    Hourly Weather Canberra

    Today, 20 January, Sunday

    Time Temperature Precipitation Wind Pressure Humidity
    00:00 +19°C° 0 mm 2 mps 712 mmHg 83%
    01:00 +18°C° 0 mm 2 mps 712 mmHg 84%
    02:00 +18°C° 0 mm 2 mps 712 mmHg 84%
    03:00 +18°C° 0 mm 2 mps 712 mmHg 85%
    04:00 +19°C° 0 mm 1 mps 712 mmHg 84%
    05:00 +19°C° 0 mm 1 mps 712 mmHg 81%
    06:00 +20°C° 0 mm 1 mps 712 mmHg 79%
    07:00 +19°C° 0 mm 2 mps 713 mmHg 76%
    08:00 +23°C° 0 mm 2 mps 713 mmHg 67%
    09:00 +26°C° 0 mm 2 mps 713 mmHg 57%
    10:00 +27°C° 0 mm 2 mps 713 mmHg 53%
    11:00 +29°C° 0 mm 2 mps 713 mmHg 47%
    12:00 +32°C° 0 mm 2 mps 713 mmHg 40%
    13:00 +35°C° 0 mm 2 mps 713 mmHg 33%
    14:00 +35°C° 0 mm 2 mps 712 mmHg 32%
    15:00 +36°C° 0 mm 2 mps 712 mmHg 30%
    16:00 +36°C° 0 mm 2 mps 712 mmHg 27%
    17:00 +33°C° 0 mm 3 mps 712 mmHg 37%
    18:00 +30°C° 0 mm 4 mps 711 mmHg 47%
    19:00 +27°C° 0 mm 5 mps 711 mmHg 58%
    20:00 +25°C° 0 mm 4 mps 711 mmHg 67%
    21:00 +22°C° 0 mm 4 mps 711 mmHg 76%
    22:00 +20°C° 0 mm 3 mps 711 mmHg 84%
    23:00 +20°C° 0 mm 3 mps 712 mmHg 85%

    Tomorrow, 21 January, Monday

    Time Temperature Precipitation Wind Pressure Humidity
    00:00 +19°C° 0 mm 3 mps 712 mmHg 86%
    01:00 +19°C° 0 mm 2 mps 712 mmHg 87%
    02:00 +19°C° 0 mm 2 mps 712 mmHg 88%
    03:00 +19°C° 0 mm 2 mps 711 mmHg 88%
    04:00 +20°C° 0 mm 1 mps 711 mmHg 89%
    05:00 +21°C° 0 mm 1 mps 711 mmHg 86%
    06:00 +22°C° 0 mm 1 mps 711 mmHg 82%
    07:00 +23°C° 0 mm 1 mps 712 mmHg 79%
    08:00 +25°C° 0 mm 2 mps 712 mmHg 73%
    09:00 +26°C° 0 mm 2 mps 712 mmHg 67%
    10:00 +28°C° 0 mm 3 mps 712 mmHg 61%
    11:00 +30°C° 0 mm 2 mps 711 mmHg 52%
    12:00 +34°C° 0 mm 2 mps 711 mmHg 43%
    13:00 +36°C° 0 mm 2 mps 711 mmHg 34%
    14:00 +35°C° 0 mm 2 mps 710 mmHg 35%
    15:00 +35°C° 0 mm 2 mps 710 mmHg 36%
    16:00 +33°C° 0 mm 1 mps 710 mmHg 37%
    17:00 +31°C° 0.2 mm 2 mps 710 mmHg 46%
    18:00 +30°C° 0.2 mm 3 mps 710 mmHg 54%
    19:00 +28°C° 0.2 mm 3 mps 710 mmHg 63%
    20:00 +27°C° 0.3 mm 3 mps 710 mmHg 69%
    21:00 +25°C° 0.3 mm 2 mps 710 mmHg 74%
    22:00 +24°C° 0.3 mm 1 mps 710 mmHg 80%
    23:00 +23°C° 0 mm 1 mps 710 mmHg 81%

    Day after tomorrow, 22 January, Tuesday

    Time Temperature Precipitation Wind Pressure Humidity
    00:00 +23°C° 0 mm 1 mps 710 mmHg 82%
    01:00 +20°C° 0 mm 0 mps 709 mmHg 83%
    02:00 +22°C° 0 mm 1 mps 709 mmHg 83%
    03:00 +22°C° 0 mm 1 mps 709 mmHg 84%
    04:00 +21°C° 0 mm 1 mps 709 mmHg 84%
    05:00 +21°C° 0 mm 0 mps 709 mmHg 77%
    06:00 +22°C° 0 mm 0 mps 710 mmHg 70%
    07:00 +24°C° 0 mm 0 mps 710 mmHg 64%
    08:00 +28°C° 0 mm 1 mps 710 mmHg 54%
    09:00 +31°C° 0 mm 1 mps 710 mmHg 45%
    10:00 +35°C° 0 mm 2 mps 711 mmHg 36%
    11:00 +36°C° 0 mm 2 mps 710 mmHg 32%
    12:00 +37°C° 0 mm 3 mps 710 mmHg 27%
    13:00 +39°C° 0 mm 3 mps 709 mmHg 23%
    14:00 +38°C° 0 mm 3 mps 709 mmHg 24%
    15:00 +38°C° 0 mm 2 mps 708 mmHg 25%
    16:00 +37°C° 0 mm 2 mps 708 mmHg 26%
    17:00 +36°C° 0 mm 2 mps 708 mmHg 29%
    18:00 +33°C° 0 mm 1 mps 708 mmHg 33%
    19:00 +32°C° 0 mm 1 mps 708 mmHg 36%
    20:00 +30°C° 0 mm 1 mps 708 mmHg 41%
    21:00 +29°C° 0 mm 1 mps 708 mmHg 46%
    22:00 +27°C° 0 mm 1 mps 708 mmHg 50%
    23:00 +25°C° 0 mm 0 mps 708 mmHg 52%

    23 January, Wednesday

    Time Temperature Precipitation Wind Pressure Humidity
    00:00 +24°C° 0 mm 0 mps 707 mmHg 53%
    01:00 +24°C° 0 mm 0 mps 707 mmHg 55%
    02:00 +25°C° 0.1 mm 1 mps 707 mmHg 57%
    03:00 +25°C° 0.1 mm 1 mps 707 mmHg 59%
    04:00 +24°C° 0.1 mm 1 mps 707 mmHg 61%
    05:00 +25°C° 0.2 mm 1 mps 707 mmHg 60%
    06:00 +26°C° 0.2 mm 1 mps 708 mmHg 58%
    07:00 +27°C° 0.2 mm 1 mps 708 mmHg 56%
    08:00 +30°C° 0 mm 2 mps 709 mmHg 48%
    09:00 +34°C° 0 mm 3 mps 709 mmHg 40%
    10:00 +36°C° 0 mm 4 mps 709 mmHg 32%
    11:00 +37°C° 0 mm 3 mps 709 mmHg 31%
    12:00 +37°C° 0 mm 3 mps 708 mmHg 29%
    13:00 +38°C° 0 mm 2 mps 708 mmHg 28%
    14:00 +36°C° 0 mm 3 mps 707 mmHg 35%
    15:00 +34°C° 0 mm 3 mps 707 mmHg 41%
    16:00 +31°C° 0 mm 3 mps 706 mmHg 48%
    17:00 +30°C° 0 mm 3 mps 707 mmHg 52%
    18:00 +29°C° 0 mm 3 mps 707 mmHg 57%
    19:00 +28°C° 0 mm 4 mps 707 mmHg 62%
    20:00 +27°C° 0.6 mm 3 mps 708 mmHg 68%
    21:00 +25°C° 0.6 mm 2 mps 708 mmHg 75%
    22:00 +24°C° 0.6 mm 2 mps 708 mmHg 81%
    23:00 +23°C° 0.2 mm 1 mps 708 mmHg 83%

    24 January, Thursday

    Time Temperature Precipitation Wind Pressure Humidity
    00:00 +23°C° 0.2 mm 1 mps 708 mmHg 86%
    01:00 +22°C° 0.2 mm 1 mps 708 mmHg 88%
    02:00 +22°C° 0.1 mm 1 mps 708 mmHg 88%
    03:00 +22°C° 0.1 mm 1 mps 708 mmHg 88%
    04:00 +22°C° 0.1 mm 1 mps 708 mmHg 88%
    05:00 +23°C° 0 mm 1 mps 708 mmHg 84%
    06:00 +24°C° 0 mm 1 mps 709 mmHg 80%
    07:00 +24°C° 0 mm 1 mps 709 mmHg 76%
    08:00 +27°C° 0 mm 1 mps 709 mmHg 65%
    09:00 +30°C° 0 mm 2 mps 709 mmHg 54%
    10:00 +34°C° 0 mm 2 mps 710 mmHg 43%
    11:00 +35°C° 0 mm 2 mps 709 mmHg 38%
    12:00 +37°C° 0 mm 3 mps 709 mmHg 33%
    13:00 +39°C° 0 mm 3 mps 708 mmHg 28%
    14:00 +39°C° 0 mm 3 mps 708 mmHg 27%
    15:00 +39°C° 0 mm 3 mps 708 mmHg 26%
    16:00 +39°C° 0 mm 2 mps 708 mmHg 26%
    17:00 +38°C° 0 mm 2 mps 708 mmHg 29%
    18:00 +36°C° 0 mm 2 mps 708 mmHg 33%
    19:00 +34°C° 0 mm 2 mps 707 mmHg 37%
    20:00 +31°C° 0 mm 2 mps 708 mmHg 46%
    21:00 +30°C° 0 mm 2 mps 708 mmHg 55%
    22:00 +28°C° 0 mm 2 mps 708 mmHg 64%
    23:00 +27°C° 0 mm 2 mps 707 mmHg 67%

    25 January, Friday

    Time Temperature Precipitation Wind Pressure Humidity
    00:00 +27°C° 0 mm 1 mps 707 mmHg 70%
    01:00 +26°C° 0 mm 1 mps 707 mmHg 72%
    02:00 +25°C° 0 mm 1 mps 707 mmHg 73%
    03:00 +25°C° 0 mm 1 mps 707 mmHg 74%
    04:00 +23°C° 0 mm 0 mps 706 mmHg 74%
    05:00 +26°C° 0 mm 1 mps 707 mmHg 68%
    06:00 +27°C° 0 mm 1 mps 707 mmHg 62%
    07:00 +29°C° 0 mm 1 mps 708 mmHg 56%
    08:00 +32°C° 0 mm 2 mps 708 mmHg 47%
    09:00 +35°C° 0 mm 4 mps 708 mmHg 39%
    10:00 +39°C° 0 mm 5 mps 708 mmHg 31%
    11:00 +40°C° 0 mm 5 mps 707 mmHg 27%
    12:00 +42°C° 0 mm 5 mps 707 mmHg 24%
    13:00 +43°C° 0 mm 5 mps 706 mmHg 21%
    14:00 +43°C° 0 mm 5 mps 706 mmHg 21%
    15:00 +43°C° 0 mm 5 mps 706 mmHg 20%
    16:00 +43°C° 0 mm 4 mps 705 mmHg 20%
    17:00 +41°C° 0 mm 4 mps 705 mmHg 23%
    18:00 +38°C° 0 mm 3 mps 705 mmHg 25%
    19:00 +37°C° 0 mm 2 mps 706 mmHg 28%
    20:00 +34°C° 0.2 mm 2 mps 706 mmHg 36%
    21:00 +31°C° 0.2 mm 2 mps 706 mmHg 44%
    22:00 +28°C° 0.2 mm 3 mps 706 mmHg 53%
    23:00 +28°C° 0.2 mm 3 mps 706 mmHg 55%
    Show more